STARLINK-30059 (55714 NORAD) Tracking and Keplerian Element Data

This shows tracking and keplerian element data for the satellite.

Feedback or suggestion? Click here.




ElementValue
Catalog55714
NameSTARLINK-30059
Epoch Orbit130
Epoch Day62.91667824
Epoch Year2023
RAAN259.6034
Inclination43.0107
Eccentricity0.0001654
Argument of Perigee280.4593
Mean Anonmoly184.699
Mean Motion15.66834976
Decay Rate-0.00605898
L11 55714U 23026V 23062.91667824 -.00605898 00000+0 -59892-2 0 9993
L22 55714 43.0107 259.6034 0001654 280.4593 184.6990 15.66834976 1301



Live tracking and technical data element details for STARLINK-30059 (NORAD 55714). STARLINK-30059 can be tracked NOW for your location showing map with azimuth and elevation plus other details from your city location.







IsCatalogInMostPopularTable: catalog: 55714, numindb: 9
Update: records affected: 1



GetName: 55714 STARLINK-30059

Hit Count: updated at: Wed, 22 Mar 2023 16:27:41 GMT